User: anonymous   Login
Location: Unspecified
(0.0000°N, 0.0000°E)
Time: 08:21:27
(UTC+00:00)
Language:

CLOUDSAT - Orbit

View from above orbital plane
View from above orbital plane
View from above satellite
View from above satellite

Ground track
Ground track

The orbit data is extracted from the following two-line orbital elements,

1 29107U 06016A   15026.29980154  .00000350  00000-0  87907-4 0  9144
2 29107 098.2261 331.9724 0000821 087.0796 273.0496 14.57082452465325
Epoch (UTC): 26 January 2015 07:11:42
Eccentricity: 0.0000821
inclination: 98.2261°
perigee height: 702 km
apogee height: 703 km
right ascension of ascending node: 331.9724°
argument of perigee: 87.0796°
revolutions per day: 14.57082452
mean anomaly at epoch: 273.0496°
orbit number at epoch: 46532

The dashed part of the orbit path shows where the satellite is in the earth's shadow,  

DLR